Probability
0 0 0 0 0 0 0 0 0 0 0 0 0 0 0 0 0 48 94 90 97 100 100 100 100 100 100 100 100 100 100 100 100 100 100 100 100 100 100 100 100 100 100 100 100 100 100 100 100
0 0 0 0 0 0 0 0 0 0 0 0 0 3 0 10 48 84 94 97 100 100 100 97 100 100 100 100 100 100 100 100 100 100 100 100 100 100 100 100 100 100 100 100 100 100 100 100 100
0 0 0 0 0 0 0 0 0 0 0 0 0 3 6 42 74 90 97 97 100 100 100 100 100 100 100 100 100 100 100 100 100 100 100 100 100 100 100 100 100 100 100 97 97 97 94 94 94
0 0 0 0 0 0 0 0 0 0 0 0 0 3 48 84 87 94 97 100 100 100 100 100 100 100 100 100 100 100 100 100 100 100 100 100 100 100 100 100 100 100 97 97 94 90 90 90 87
0 0 0 0 0 0 0 0 0 0 0 0 0 3 55 100 87 94 97 100 100 100 100 100 100 100 100 100 100 100 100 100 100 100 100 100 100 100 100 100 100 100 97 94 84 77 81 77 77
0 0 0 0 0 0 0 0 0 0 0 0 0 0 65 100 100 97 97 97 97 97 100 100 100 100 100 100 100 100 100 100 100 100 100 100 100 100 100 100 97 97 97 87 65 55 48 52 48
0 0 0 0 0 0 0 0 0 0 0 0 0 3 74 97 100 94 94 94 90 97 100 100 100 100 100 100 100 100 100 100 100 100 100 100 100 100 100 97 97 97 87 81 61 42 39 29 32
0 0 0 0 0 0 0 0 0 0 0 3 10 13 65 97 100 97 94 84 87 94 100 100 100 100 100 100 100 100 100 100 100 100 100 100 100 97 97 97 97 90 84 84 68 52 48 39 29
0 0 0 0 0 0 0 0 0 0 0 0 16 16 65 97 100 97 97 90 97 97 100 100 100 100 100 100 100 100 100 100 100 100 100 100 97 87 97 97 97 94 84 77 74 71 58 45 35
0 0 0 0 0 0 0 0 0 0 0 0 3 35 84 97 100 100 97 97 97 100 100 100 100 100 100 100 100 100 100 100 100 100 97 94 90 90 65 94 97 97 97 94 87 77 77 42 35
0 0 0 0 0 0 0 0 0 0 0 0 0 32 84 90 97 100 97 94 94 100 100 100 100 100 100 100 100 100 100 100 100 100 100 100 94 90 74 97 100 100 94 87 90 71 58 35 32
0 0 0 0 0 0 0 0 0 0 0 0 0 13 65 84 90 94 97 84 87 97 100 100 100 100 100 100 100 100 100 100 100 100 97 90 84 84 68 90 77 97 87 94 74 71 39 32 26
0 0 0 0 0 0 0 0 0 0 0 0 3 19 48 84 94 94 94 84 84 97 97 100 100 100 100 100 100 100 100 100 97 100 94 97 84 81 52 87 100 97 90 90 94 58 45 35 23
0 0 0 0 0 0 0 0 0 0 0 0 13 26 48 81 94 94 97 94 84 97 100 100 100 100 100 100 100 100 100 100 90 97 94 100 87 81 87 94 100 100 97 87 90 74 74 58 29
0 0 0 0 0 0 0 0 0 0 0 10 23 48 71 87 94 94 97 97 97 100 100 100 100 100 100 100 100 100 100 100 100 97 100 100 97 97 97 90 100 100 100 94 87 81 74 71 55
0 0 0 0 0 0 0 0 0 0 3 19 48 61 77 94 90 97 97 100 100 100 100 100 100 100 100 100 100 100 100 100 100 100 100 100 100 97 100 100 100 100 94 87 84 84 77 58 52
0 0 0 0 0 0 0 0 3 3 10 29 55 65 74 90 90 97 97 97 100 100 100 100 100 100 100 100 100 100 100 100 97 97 94 97 97 94 97 97 94 84 81 84 74 65 58 48 52
0 0 0 0 0 0 3 6 10 13 23 35 58 65 71 77 94 94 97 97 97 97 97 100 100 100 100 100 97 97 94 90 90 90 90 84 87 81 84 77 71 74 74 61 58 55 52 45 42
0 0 0 0 0 0 3 13 19 26 29 42 61 52 65 77 84 77 84 94 94 94 94 97 100 100 100 100 97 94 94 90 87 71 71 68 71 71 68 55 58 48 52 35 35 29 23 26 19
0 0 0 0 0 3 16 23 29 35 42 45 61 61 71 84 77 71 65 68 81 84 87 97 97 97 97 97 94 94 84 81 61 58 58 55 55 45 42 39 32 29 29 23 26 16 10 10 6
0 0 0 0 0 3 10 19 26 26 29 42 32 42 58 52 58 58 68 68 68 65 71 77 94 94 90 90 90 81 71 58 52 48 39 29 32 29 29 16 16 16 13 16 6 6 6 10 3
0 0 0 0 0 0 0 3 19 26 23 26 23 23 26 26 26 39 39 42 48 52 58 68 68 71 81 84 81 74 65 61 42 32 16 10 6 10 6 6 6 6 6 6 6 6 6 6 3
0 0 0 0 0 0 0 0 23 26 23 19 19 13 13 16 16 16 19 19 19 23 39 42 45 48 61 65 65 68 52 35 19 16 13 6 3 3 3 3 3 3 3 3 3 6 3 0 0
0 0 0 0 0 0 0 3 16 29 23 13 6 3 6 6 6 3 3 3 6 10 16 19 26 23 23 23 29 32 19 16 16 10 3 3 3 3 3 3 3 3 3 3 3 0 0 0 0
0 0 0 0 0 0 0 0 32 39 23 13 3 3 3 3 3 3 0 0 0 0 0 0 3 6 6 13 10 10 10 10 10 0 0 3 3 3 3 0 0 0 0 0 0 0 0 0 0
0 0 0 0 0 0 0 3 45 23 23 13 6 3 0 0 0 0 0 0 0 0 0 0 0 0 0 0 0 0 0 3 0 0 0 0 0 0 0 0 0 0 0 0 0 0 0 0 0
0 0 0 0 0 0 6 16 29 26 16 10 6 3 0 0 0 0 0 0 0 0 0 0 0 0 0 0 0 0 0 0 0 0 0 0 0 0 0 0 0 0 0 0 0 0 0 0 0
0 0 0 0 0 0 0 3 16 26 10 10 6 3 3 0 0 0 0 0 0 0 0 0 0 0 0 0 0 0 0 0 0 0 0 0 0 0 0 0 0 0 0 0 0 0 0 0 0
0 0 0 0 0 0 0 3 16 32 23 13 3 3 3 0 0 0 0 0 0 0 0 0 0 0 0 0 0 0 0 0 0 0 0 0 0 0 0 0 0 0 0 0 0 0 0 0 0
0 0 0 0 0 0 0 10 19 42 23 6 3 0 0 0 0 0 0 0 0 0 0 0 0 0 0 0 0 0 0 0 0 0 0 0 0 0 0 0 0 0 0 0 0 0 0 0 0
Height
5887 5889 5891 5893 5896 5899 5900 5898 5899 5900 5900 5901 5901 5902 5902 5903 5903 5905 5903 5901 5901 5901 5901 5902 5902 5903 5903 5904 5905 5906 5906 5906 5906 5906 5906 5907 5906 5906 5906 5906 5906 5906 5906 5906 5906 5905 5905 5905 5904
5884 5886 5889 5891 5894 5897 5897 5896 5897 5897 5899 5899 5900 5900 5900 5900 5900 5900 5899 5898 5898 5898 5898 5899 5900 5901 5901 5902 5903 5904 5904 5904 5904 5905 5905 5905 5905 5905 5905 5905 5905 5905 5905 5905 5905 5904 5904 5903 5903
5881 5883 5886 5888 5890 5894 5894 5893 5894 5895 5897 5898 5898 5899 5899 5899 5898 5898 5897 5896 5896 5896 5896 5896 5897 5898 5899 5900 5901 5902 5902 5903 5903 5903 5903 5903 5903 5903 5904 5904 5904 5904 5904 5904 5904 5903 5903 5902 5902
5878 5880 5883 5885 5887 5889 5889 5890 5891 5893 5895 5896 5897 5897 5898 5898 5897 5896 5895 5894 5894 5894 5893 5894 5895 5896 5897 5898 5899 5900 5901 5901 5901 5901 5902 5902 5902 5902 5903 5903 5903 5903 5903 5903 5903 5902 5902 5901 5901
5874 5876 5879 5880 5883 5885 5885 5886 5889 5891 5893 5894 5895 5896 5896 5896 5895 5894 5893 5893 5892 5892 5891 5892 5892 5893 5895 5896 5897 5898 5899 5900 5900 5900 5900 5900 5901 5901 5902 5902 5902 5902 5902 5902 5902 5901 5901 5900 5899
5869 5872 5875 5876 5879 5881 5881 5883 5886 5888 5890 5892 5893 5894 5894 5894 5894 5893 5892 5891 5890 5890 5890 5890 5890 5892 5893 5894 5896 5897 5897 5898 5898 5899 5899 5899 5900 5901 5901 5901 5902 5902 5902 5901 5901 5900 5900 5899 5898
5865 5868 5870 5873 5875 5876 5877 5878 5881 5885 5887 5889 5891 5892 5893 5893 5892 5891 5890 5890 5889 5888 5888 5888 5889 5890 5891 5893 5894 5895 5896 5897 5897 5898 5898 5899 5899 5900 5900 5901 5901 5901 5901 5901 5900 5899 5898 5897 5897
5858 5863 5865 5867 5869 5872 5873 5873 5877 5880 5883 5886 5889 5890 5891 5891 5891 5890 5889 5888 5888 5887 5887 5888 5888 5889 5890 5891 5892 5893 5895 5895 5896 5896 5897 5898 5898 5898 5899 5899 5900 5900 5900 5899 5899 5898 5897 5896 5895
5851 5856 5860 5862 5864 5867 5867 5869 5872 5876 5880 5883 5886 5888 5889 5889 5889 5889 5888 5887 5886 5886 5886 5887 5887 5888 5889 5890 5891 5892 5893 5894 5895 5895 5896 5896 5897 5897 5898 5898 5898 5898 5898 5898 5898 5897 5896 5894 5893
5844 5850 5855 5856 5858 5860 5862 5865 5867 5872 5876 5880 5883 5885 5887 5888 5888 5887 5886 5886 5885 5885 5885 5886 5886 5887 5888 5889 5890 5891 5892 5893 5893 5894 5895 5895 5895 5896 5896 5896 5897 5897 5897 5896 5896 5895 5894 5893 5891
5837 5843 5847 5849 5852 5854 5857 5860 5863 5867 5871 5876 5879 5882 5884 5885 5886 5885 5885 5884 5884 5884 5884 5885 5886 5887 5888 5889 5889 5890 5891 5892 5892 5893 5893 5894 5894 5894 5894 5894 5895 5895 5894 5894 5894 5893 5892 5891 5890
5831 5835 5839 5843 5846 5849 5852 5855 5858 5862 5867 5871 5875 5878 5881 5883 5883 5883 5883 5883 5883 5883 5883 5884 5885 5886 5886 5887 5888 5889 5890 5890 5891 5891 5892 5892 5892 5892 5892 5892 5892 5892 5892 5892 5891 5890 5889 5888 5887
5823 5828 5832 5836 5841 5844 5848 5851 5854 5858 5862 5866 5871 5874 5877 5879 5881 5881 5881 5881 5881 5881 5882 5883 5883 5884 5885 5886 5887 5887 5888 5889 5889 5890 5890 5890 5890 5890 5890 5890 5890 5890 5889 5889 5888 5887 5887 5886 5884
5817 5822 5827 5831 5836 5840 5844 5847 5850 5854 5858 5862 5866 5870 5873 5876 5877 5878 5879 5879 5880 5880 5880 5881 5882 5883 5883 5884 5885 5886 5886 5887 5887 5887 5887 5887 5887 5887 5887 5887 5887 5886 5886 5885 5885 5884 5883 5882 5881
5812 5817 5822 5826 5830 5835 5839 5843 5846 5849 5853 5857 5861 5865 5868 5871 5873 5875 5876 5877 5877 5878 5878 5879 5880 5880 5881 5882 5883 5883 5884 5884 5884 5884 5885 5884 5884 5884 5884 5884 5883 5882 5881 5881 5880 5879 5878 5877 5876
5807 5812 5817 5820 5825 5829 5836 5839 5841 5844 5848 5852 5856 5860 5864 5867 5869 5871 5873 5874 5875 5876 5876 5877 5878 5878 5879 5879 5880 5881 5881 5881 5881 5881 5881 5881 5881 5880 5879 5879 5878 5877 5876 5875 5874 5873 5872 5871 5870
5803 5807 5811 5815 5820 5825 5831 5834 5836 5839 5843 5847 5851 5855 5859 5862 5864 5867 5869 5870 5872 5873 5874 5874 5875 5876 5876 5876 5877 5877 5878 5878 5878 5877 5877 5877 5876 5875 5874 5873 5872 5871 5869 5868 5867 5866 5865 5864 5863
5798 5803 5806 5810 5815 5820 5825 5828 5831 5834 5838 5842 5846 5850 5854 5857 5860 5863 5865 5867 5868 5870 5871 5871 5872 5872 5873 5873 5873 5874 5873 5873 5873 5872 5872 5871 5870 5869 5868 5866 5865 5863 5862 5861 5859 5858 5857 5856 5855
5793 5798 5802 5806 5811 5816 5819 5823 5827 5830 5834 5837 5841 5845 5848 5852 5856 5858 5861 5863 5864 5866 5867 5867 5868 5869 5869 5870 5869 5869 5868 5867 5867 5866 5865 5864 5864 5863 5861 5859 5858 5856 5854 5853 5851 5850 5849 5847 5847
5790 5795 5799 5803 5807 5812 5815 5820 5823 5826 5829 5833 5836 5840 5843 5847 5851 5854 5856 5858 5860 5861 5862 5862 5863 5864 5864 5864 5864 5863 5862 5861 5860 5860 5859 5858 5857 5855 5853 5851 5850 5848 5846 5844 5843 5842 5840 5840 5839
5787 5792 5796 5800 5804 5808 5813 5817 5820 5822 5826 5829 5832 5836 5839 5842 5846 5849 5851 5854 5855 5857 5858 5858 5858 5859 5859 5858 5858 5857 5856 5855 5854 5853 5851 5850 5849 5847 5845 5843 5841 5840 5839 5838 5836 5834 5833 5832 5831
5785 5788 5793 5797 5803 5807 5811 5814 5816 5819 5822 5825 5828 5831 5834 5837 5840 5843 5846 5848 5850 5851 5852 5852 5853 5853 5853 5852 5852 5851 5850 5848 5847 5845 5843 5841 5840 5838 5836 5835 5834 5833 5832 5831 5829 5827 5827 5825 5824
5781 5786 5791 5795 5800 5805 5808 5812 5813 5815 5818 5821 5824 5827 5829 5832 5835 5837 5840 5842 5844 5845 5846 5846 5847 5847 5846 5845 5844 5844 5843 5841 5839 5837 5835 5834 5833 5830 5829 5827 5826 5826 5824 5823 5821 5820 5819 5817 5816
5779 5785 5789 5793 5799 5803 5805 5809 5810 5811 5814 5817 5819 5822 5825 5827 5829 5831 5834 5835 5837 5838 5839 5840 5840 5840 5839 5838 5837 5836 5835 5834 5832 5829 5828 5826 5825 5822 5820 5819 5818 5817 5816 5814 5813 5811 5810 5808 5807
5779 5785 5790 5794 5798 5801 5802 5805 5806 5808 5811 5813 5815 5817 5820 5822 5824 5826 5827 5829 5830 5832 5833 5833 5833 5833 5832 5831 5830 5829 5828 5826 5824 5822 5820 5818 5816 5813 5812 5811 5810 5808 5807 5805 5803 5802 5800 5798 5796
5777 5783 5791 5796 5798 5797 5798 5800 5803 5805 5807 5809 5811 5813 5815 5817 5819 5820 5821 5823 5824 5825 5826 5826 5826 5825 5824 5823 5822 5821 5820 5818 5816 5814 5812 5809 5808 5806 5804 5802 5801 5799 5797 5795 5793 5791 5789 5787 5785
5777 5781 5785 5790 5793 5795 5795 5797 5799 5801 5803 5805 5807 5809 5810 5812 5813 5814 5814 5816 5817 5818 5818 5818 5818 5817 5817 5815 5814 5812 5811 5809 5807 5805 5803 5800 5798 5796 5794 5792 5790 5788 5785 5783 5781 5779 5777 5774 5772
5776 5779 5783 5788 5791 5792 5792 5793 5795 5797 5799 5801 5802 5804 5805 5806 5807 5807 5808 5808 5809 5809 5810 5809 5809 5808 5807 5806 5804 5803 5801 5799 5797 5795 5792 5790 5788 5786 5783 5781 5778 5776 5773 5771 5769 5766 5764 5761 5758
5775 5778 5780 5784 5787 5791 5791 5792 5791 5792 5794 5795 5797 5798 5799 5799 5800 5800 5801 5801 5801 5801 5801 5800 5800 5799 5797 5796 5794 5792 5791 5789 5787 5785 5782 5779 5777 5774 5771 5769 5766 5763 5761 5758 5756 5753 5750 5747 5744
5773 5775 5778 5782 5783 5785 5787 5788 5786 5787 5788 5789 5790 5791 5792 5792 5792 5792 5792 5792 5792 5792 5791 5791 5790 5789 5787 5786 5784 5782 5780 5778 5776 5774 5771 5768 5765 5762 5759 5756 5753 5750 5747 5745 5742 5739 5736 5732 5729
Wind_Speed
16 20 22 21 19 17 16 18 16 13 12 10 10 10 10 9 8 8 8 8 9 9 9 10 10 10 10 10 10 10 11 10 9 8 8 7 6 6 6 5 5 4 4 4 3 3 3 4 4
15 19 22 23 22 17 18 21 18 15 13 11 11 10 9 9 8 8 8 9 9 9 10 10 11 11 11 11 11 11 12 11 10 9 8 8 7 7 6 6 5 5 4 4 4 4 4 4 5
17 18 23 25 26 21 20 23 20 17 14 12 11 10 9 8 8 8 8 8 9 9 9 10 11 11 12 12 12 12 13 12 11 10 9 8 7 7 6 6 5 5 4 4 3 3 4 5 5
20 20 22 25 27 27 28 26 22 19 16 13 11 9 8 8 7 6 7 7 8 9 9 10 11 12 12 12 12 12 13 12 11 10 9 8 8 7 6 6 5 4 3 3 3 3 4 5 6
24 22 21 23 27 29 31 28 24 21 18 15 12 10 9 8 7 6 6 7 8 8 9 10 11 11 12 13 13 13 12 12 11 10 9 9 8 7 6 5 4 3 3 2 2 3 5 6 7
28 24 21 20 26 31 32 30 27 24 20 17 14 11 10 8 7 6 6 6 7 8 9 9 10 11 12 13 13 13 13 12 11 10 9 8 8 7 6 5 4 3 2 2 3 4 5 7 8
31 27 23 21 26 32 34 32 30 28 24 20 16 13 11 9 8 7 6 6 6 8 8 10 11 11 13 13 13 13 12 12 11 10 9 8 8 7 6 5 4 3 2 2 3 5 6 8 9
33 30 26 24 26 32 36 35 32 29 26 22 18 15 13 11 9 8 6 6 6 7 9 10 11 12 13 13 13 12 12 11 11 10 9 8 8 7 6 5 4 3 3 3 4 6 7 9 10
37 34 29 27 26 31 38 37 35 32 28 24 20 17 14 11 10 8 6 6 6 8 9 10 11 12 13 13 13 12 12 11 11 10 9 9 8 7 7 5 4 4 4 4 5 6 7 9 9
39 36 31 31 28 31 37 38 37 34 30 26 23 20 16 13 11 9 6 6 7 8 10 11 12 12 12 13 12 12 12 11 11 10 10 9 8 8 7 6 6 5 5 6 7 8 8 9 10
40 37 35 32 30 31 34 37 38 36 33 29 26 22 18 14 12 10 7 6 7 9 10 11 12 12 12 12 12 12 11 11 11 10 10 10 10 9 9 8 8 8 8 9 9 10 10 10 11
40 39 36 34 33 31 31 34 37 36 33 31 28 23 19 16 14 12 9 7 8 10 11 12 12 13 12 12 12 11 11 11 11 11 11 11 11 11 11 11 11 11 11 12 12 12 12 13 13
38 39 38 36 34 32 30 31 35 36 35 33 29 26 22 19 17 15 13 11 11 11 12 13 13 13 13 13 12 12 12 12 12 12 13 13 13 14 14 14 15 15 15 15 16 16 16 16 16
36 37 37 36 34 31 31 31 32 35 35 33 30 27 24 21 19 17 15 13 13 14 15 15 14 14 14 14 13 13 13 14 14 14 15 15 16 17 17 18 18 19 19 20 20 20 19 19 19
32 34 35 34 32 31 31 31 31 33 35 33 31 28 25 23 21 19 17 15 15 16 17 17 16 16 15 16 16 16 16 16 16 17 17 18 19 20 20 21 22 23 23 24 24 24 24 24 23
28 30 31 33 31 31 30 30 31 33 34 35 32 29 27 25 23 21 19 17 17 18 18 19 18 18 17 17 18 18 18 19 19 19 20 21 22 23 24 25 26 27 27 28 29 28 29 28 28
26 27 29 31 31 30 29 29 31 31 33 35 34 31 29 27 26 23 22 20 20 20 21 21 21 21 20 20 20 21 21 22 22 23 24 25 26 27 28 29 30 31 31 32 33 34 33 31 31
25 26 28 29 30 29 29 30 29 30 32 34 34 33 31 30 28 25 23 23 22 22 23 24 24 23 23 23 23 23 25 26 27 28 28 29 30 31 32 33 34 34 35 35 36 37 34 32 31
26 26 26 28 28 27 28 29 29 29 32 33 34 34 32 31 28 26 24 25 25 25 25 25 25 24 24 25 26 27 29 30 31 31 32 34 35 36 37 38 40 39 39 38 38 35 35 33 32
25 24 25 26 26 26 26 26 27 29 30 32 33 33 31 31 29 28 27 26 26 26 26 28 27 27 28 29 30 29 31 32 34 35 36 37 38 39 40 41 41 39 37 35 34 32 32 32 31
24 24 24 25 25 24 24 24 25 27 29 30 31 32 33 32 30 30 29 29 28 28 28 28 29 29 30 31 33 32 34 36 37 38 38 39 41 42 40 39 38 35 33 30 30 29 27 27 28
22 24 25 24 21 21 22 20 25 25 27 28 29 30 31 31 32 32 32 32 31 31 32 32 31 31 32 33 33 34 34 36 37 38 38 39 41 41 39 37 35 33 31 31 29 28 28 27 27
24 24 23 23 22 20 21 19 22 24 25 26 27 29 30 31 33 34 34 34 34 35 35 34 34 34 34 35 34 35 37 39 39 41 41 41 41 41 41 39 37 35 33 33 33 33 32 32 32
24 23 22 21 19 19 20 19 20 22 22 23 24 26 28 30 31 33 34 34 35 35 35 35 36 36 35 35 36 36 38 40 41 41 42 42 42 42 41 39 38 38 36 36 35 35 36 36 36
23 22 18 17 18 19 21 20 20 21 21 22 22 24 25 27 29 31 32 34 34 36 36 37 38 37 37 38 38 39 39 41 43 43 43 44 44 43 41 41 41 41 40 39 39 38 39 39 39
22 22 16 15 16 19 22 22 21 20 21 21 22 23 24 26 28 30 32 35 36 36 37 38 38 39 39 40 41 42 42 43 44 45 45 46 47 46 46 45 44 44 43 43 43 43 43 42 42
20 21 20 17 17 17 21 23 21 21 21 21 22 24 25 26 28 30 31 33 36 37 37 38 39 40 41 42 43 43 44 45 46 46 47 47 47 48 47 47 47 46 45 45 45 45 45 46 47
18 18 20 17 14 16 20 22 22 21 22 22 23 25 27 28 29 30 32 33 34 36 37 39 40 42 42 43 43 44 44 45 46 47 48 47 48 49 49 49 48 48 47 47 47 47 48 49 50
16 17 18 17 16 14 16 20 21 22 23 24 25 27 28 30 31 32 33 34 36 37 39 40 41 41 42 43 43 44 44 45 46 46 47 48 49 50 50 50 50 49 48 47 48 48 50 51 53
14 15 16 16 18 18 16 21 21 22 24 24 26 27 29 31 32 33 35 36 37 38 39 40 41 42 42 43 43 43 43 44 44 45 46 47 48 48 49 49 49 49 49 49 50 51 52 54 55
Wind_Direction
233 222 216 216 216 218 223 231 229 228 226 224 218 211 209 207 210 224 240 244 241 237 232 225 219 216 215 216 219 224 225 224 224 226 231 237 242 245 248 250 249 252 253 254 255 257 260 260 261
240 228 220 218 215 214 228 232 229 227 227 225 221 215 217 217 223 233 242 245 242 238 234 227 220 216 215 216 218 223 225 224 225 229 233 236 239 241 244 245 247 251 254 258 263 269 273 274 274
243 233 222 219 218 213 224 230 226 227 228 227 223 223 230 237 243 244 253 249 244 240 235 227 219 214 212 213 216 219 221 222 225 229 232 233 234 238 242 244 248 250 255 263 271 279 285 286 286
242 237 228 224 222 220 225 230 227 230 230 228 229 229 236 245 253 261 261 256 246 240 234 224 216 211 209 209 211 215 218 220 224 226 227 230 233 236 239 241 242 247 254 265 278 289 295 296 295
239 238 234 228 223 223 229 230 229 231 228 226 228 235 248 253 266 269 270 259 248 239 229 220 213 209 208 207 209 213 216 218 219 221 223 226 229 231 232 233 234 237 246 268 290 300 303 303 302
237 238 238 233 224 224 230 231 231 231 228 226 231 242 256 261 271 277 276 269 252 238 225 216 209 208 209 208 210 213 215 216 216 215 217 220 222 221 221 220 220 225 239 270 291 301 306 309 309
236 236 237 235 224 222 226 230 231 231 230 231 234 243 252 262 271 277 275 271 252 233 220 212 208 208 210 211 211 211 211 211 210 210 211 213 214 212 212 214 219 228 255 284 299 306 307 310 311
234 235 233 232 225 221 224 228 230 231 231 233 234 238 249 262 270 274 272 265 248 229 216 211 210 210 209 208 207 206 207 206 206 208 211 214 214 215 217 220 228 242 268 291 302 305 307 309 308
233 232 231 232 228 221 223 226 229 231 233 234 237 241 250 258 266 271 269 257 242 228 214 209 208 207 205 204 203 203 204 206 208 211 216 218 221 226 227 231 242 254 272 287 297 302 307 309 309
232 231 230 231 228 222 224 225 228 229 229 231 236 241 245 253 258 262 261 252 237 225 214 208 204 204 203 203 203 204 207 211 215 220 223 226 231 235 237 241 253 259 267 277 286 294 301 305 308
231 230 229 230 229 226 226 225 229 230 230 229 232 236 240 245 249 251 253 247 233 223 215 207 203 203 204 206 207 211 215 220 225 227 230 234 238 242 245 251 256 258 266 273 279 288 294 298 303
231 230 229 229 228 227 227 227 230 231 231 230 229 231 233 237 240 244 249 246 230 218 211 205 204 204 206 210 213 218 222 227 232 236 238 242 245 247 251 255 258 259 264 268 274 282 286 290 294
229 228 228 228 229 229 229 230 230 231 230 229 226 226 228 232 237 243 247 246 231 218 211 207 207 209 211 215 219 223 228 234 239 243 246 247 250 252 255 258 261 262 263 265 269 274 278 281 285
228 227 227 228 230 230 230 231 231 230 229 228 225 222 223 228 234 238 242 241 231 220 213 212 213 215 217 221 226 230 234 239 243 247 250 253 256 258 260 261 263 264 265 266 267 270 272 274 277
227 226 226 226 228 228 228 230 230 227 228 228 224 221 221 225 231 235 238 238 230 222 216 215 218 221 225 228 232 237 240 244 248 251 254 256 259 261 263 263 264 265 267 267 267 269 270 271 272
224 222 223 223 224 225 226 228 228 227 227 227 225 220 221 225 228 231 234 234 230 227 222 221 224 226 229 233 237 240 243 248 252 254 256 258 260 262 264 264 265 266 267 267 267 269 270 271 271
219 217 218 221 220 221 222 224 228 227 224 225 224 221 221 224 228 230 234 235 232 231 228 228 229 229 232 236 240 243 246 249 253 255 257 259 261 262 264 265 267 267 268 268 269 269 269 271 271
213 212 215 218 217 218 218 223 227 225 223 223 222 223 225 227 229 232 235 235 235 234 233 233 233 233 237 242 244 247 249 251 253 255 258 260 261 263 265 267 268 268 269 271 271 271 270 271 271
210 209 211 215 214 215 218 223 225 224 222 221 222 223 225 230 234 235 238 240 240 237 236 236 236 237 242 246 249 251 252 254 256 258 259 261 264 266 268 269 269 270 273 275 275 275 273 272 273
207 206 209 212 211 213 217 220 222 224 224 223 224 227 227 231 233 236 240 243 244 243 244 241 240 240 243 246 249 254 258 259 258 260 262 265 268 271 270 272 274 276 277 279 280 280 277 276 275
201 200 203 207 208 212 214 218 220 223 225 225 227 229 231 230 232 236 240 243 244 245 247 247 246 249 252 254 254 256 258 260 262 264 268 271 272 272 275 276 279 285 287 287 288 284 279 279 278
196 200 202 204 204 211 211 219 221 223 224 227 229 233 237 236 235 238 241 242 244 245 248 250 252 254 255 258 259 260 262 263 266 270 276 278 278 282 284 286 292 293 291 294 293 293 285 283 283
193 196 199 201 202 209 211 216 224 225 226 229 232 235 238 240 241 242 243 243 245 247 252 252 254 258 260 264 268 266 265 267 272 274 279 282 284 286 290 293 297 296 296 296 295 294 289 285 285
192 193 197 199 203 210 213 216 227 228 229 232 235 237 238 241 243 243 244 246 247 249 253 256 259 260 263 268 273 274 273 273 276 279 283 285 286 287 290 294 297 297 296 294 294 291 287 284 283
190 188 193 199 202 214 216 217 227 229 231 234 237 239 241 242 244 245 246 248 249 251 254 259 262 265 268 271 274 277 278 277 278 279 281 284 288 291 293 294 295 295 293 291 289 288 285 284 282
191 187 185 200 209 219 220 223 229 232 234 237 239 241 243 245 246 248 249 250 251 254 257 262 265 268 272 273 275 277 279 280 281 283 285 288 291 292 293 292 291 291 289 288 288 287 285 282 280
193 195 197 201 206 219 226 229 232 235 239 241 243 245 247 249 250 252 253 253 255 257 261 263 266 270 272 273 276 278 280 282 284 285 285 287 288 289 289 288 288 288 286 284 284 284 282 281 281
194 200 205 206 217 229 237 237 238 240 242 245 248 249 251 252 254 256 258 260 261 262 265 267 270 272 274 277 278 279 281 282 284 284 284 284 285 287 286 286 285 284 284 282 282 281 280 280 280
199 205 208 211 216 226 244 246 246 248 250 251 252 254 255 256 257 259 262 264 265 267 268 270 272 274 275 277 278 279 280 282 283 283 283 284 284 284 284 284 283 282 282 281 281 280 281 281 280
206 213 216 218 230 228 238 250 251 253 254 255 256 257 258 260 262 263 265 266 267 269 271 272 273 275 275 277 277 278 280 280 281 281 281 281 282 282 281 281 280 280 280 281 281 280 280 281 281